Probability
77 94 100 100 100 100 100 100 100 100 100 100 100 100 100 100 100 100 100 100 100 94 94 97 94 87 81 84 81 81 84 81 84 87 74 61 61 65 58 65 68 84 90
84 90 100 100 100 100 100 100 100 100 100 100 100 100 100 97 97 97 97 97 97 94 94 94 90 84 90 87 87 94 97 87 81 87 77 61 58 58 65 68 81 87 87
84 87 100 100 100 100 100 100 100 100 100 100 100 100 97 97 97 97 97 97 94 90 90 90 90 90 94 94 94 100 100 94 90 84 74 61 68 68 77 87 87 87 87
74 84 97 100 100 100 100 100 100 100 100 100 100 100 97 97 97 97 94 90 87 84 84 84 87 94 94 94 100 100 100 94 87 71 68 65 58 74 84 87 90 87 87
65 87 100 100 100 100 100 100 100 100 100 100 100 100 100 97 97 90 90 90 81 87 81 81 87 87 94 94 97 100 90 97 90 84 81 84 84 84 90 90 87 87 87
81 94 100 100 100 100 100 100 100 100 100 100 100 100 100 94 97 87 90 90 90 84 81 84 90 94 87 90 90 97 100 100 94 87 87 87 90 94 94 94 90 90 90
84 84 100 100 100 100 100 100 100 100 100 100 100 100 100 97 94 81 87 81 87 87 77 84 94 94 90 90 90 97 100 97 90 81 87 87 90 94 94 90 90 90 94
81 84 100 100 100 100 100 100 100 100 100 100 100 100 100 100 100 94 84 81 81 90 87 94 97 97 100 97 100 97 100 97 90 77 84 84 90 94 90 90 90 90 94
90 84 94 100 100 100 100 100 100 100 100 100 100 100 97 97 94 97 94 90 84 90 94 90 97 97 94 90 94 97 100 97 84 77 74 84 90 87 90 90 90 94 90
100 90 97 94 100 100 100 100 100 100 100 100 100 97 97 97 94 94 100 100 97 100 97 97 97 100 97 94 94 100 100 97 65 71 77 90 94 90 94 94 94 94 90
97 100 97 97 100 100 97 100 100 100 100 100 100 87 90 94 87 94 94 97 100 97 97 100 97 97 100 100 94 97 100 58 35 68 77 94 94 90 94 94 94 90 87
97 94 100 100 100 97 94 97 100 97 94 94 94 87 84 87 77 77 84 90 87 94 97 100 97 94 97 97 97 97 77 68 39 74 84 94 94 90 90 94 90 90 90
94 94 97 97 100 100 100 97 94 94 94 87 81 77 77 74 74 74 84 87 90 87 94 97 97 90 87 94 90 94 81 65 58 65 90 97 97 90 87 87 94 90 90
94 94 97 97 97 94 94 94 94 87 87 77 74 65 68 68 55 61 74 65 71 81 87 84 94 81 84 81 84 84 71 81 61 74 90 97 97 94 90 90 90 97 94
90 90 94 97 97 94 90 97 84 84 71 68 61 48 42 48 52 52 61 61 58 71 77 84 84 84 84 77 77 77 74 74 68 74 87 94 97 97 94 90 94 94 90
90 87 90 97 97 94 94 94 81 68 65 48 42 26 19 32 35 39 45 61 65 65 74 84 81 74 74 74 74 71 68 71 71 68 71 87 94 100 100 97 94 90 87
84 84 90 94 97 94 87 77 74 55 48 39 26 19 16 23 23 32 42 45 61 68 55 68 58 71 68 61 68 65 61 65 61 55 58 61 65 87 100 100 94 90 90
81 84 84 81 90 87 84 77 52 42 35 19 13 10 10 6 3 23 26 32 42 39 52 74 68 61 58 65 61 61 58 58 55 55 55 61 58 48 81 97 94 87 90
77 81 81 81 87 81 74 58 42 39 29 16 13 10 3 3 3 10 19 23 26 32 32 23 45 52 48 52 55 55 42 52 45 42 45 39 55 61 58 61 84 84 87
65 74 77 81 74 68 52 55 39 26 19 16 10 10 3 0 0 0 3 3 10 32 32 42 35 35 35 35 6 16 32 32 35 32 29 26 48 52 48 39 61 61 71
65 68 68 61 65 58 48 45 26 23 19 13 6 6 3 0 0 0 6 3 16 23 23 13 16 16 19 16 10 16 19 23 29 26 26 23 26 39 45 48 42 42 48
58 58 65 68 58 55 55 65 42 32 19 16 6 6 3 3 0 0 6 6 3 16 3 6 10 10 10 3 6 10 6 13 19 16 32 29 23 26 32 29 42 35 29
42 48 45 61 58 61 55 48 35 39 23 16 10 10 6 3 0 0 0 0 3 6 0 0 3 3 3 3 0 3 3 13 13 10 13 19 19 26 26 23 29 45 35
39 32 48 52 52 58 61 55 29 26 19 19 23 13 13 3 3 0 0 0 0 3 6 0 0 3 3 3 3 3 3 10 10 10 6 3 6 3 13 3 6 19 39
32 32 42 45 55 55 58 65 61 42 48 45 39 42 10 10 3 0 0 0 0 3 3 3 3 3 6 3 3 3 3 3 0 0 0 0 3 3 3 3 6 3 13
32 26 39 55 58 61 65 68 61 55 58 61 52 42 29 23 10 3 0 0 0 0 0 0 0 0 0 0 3 3 3 3 3 0 0 0 3 3 3 3 3 3 3
Height
5895 5896 5897 5899 5899 5900 5901 5902 5902 5902 5902 5902 5902 5902 5902 5902 5902 5902 5902 5901 5901 5901 5900 5900 5899 5899 5898 5898 5897 5897 5896 5895 5895 5895 5894 5894 5894 5894 5894 5894 5896 5897 5898
5894 5895 5896 5897 5899 5900 5900 5901 5902 5902 5902 5902 5902 5902 5902 5902 5902 5902 5902 5902 5901 5901 5901 5900 5900 5899 5899 5898 5898 5897 5897 5896 5896 5895 5895 5894 5894 5895 5895 5896 5897 5899 5900
5892 5893 5895 5896 5898 5899 5899 5900 5901 5901 5901 5901 5902 5902 5902 5902 5902 5902 5902 5901 5901 5901 5900 5900 5900 5899 5899 5898 5898 5897 5897 5896 5896 5896 5895 5895 5895 5896 5896 5897 5898 5900 5901
5890 5892 5894 5895 5896 5898 5898 5899 5900 5901 5901 5901 5901 5901 5901 5901 5901 5901 5901 5901 5901 5901 5900 5900 5900 5899 5899 5898 5898 5898 5897 5897 5897 5896 5896 5896 5896 5897 5897 5898 5899 5900 5902
5889 5890 5892 5893 5895 5896 5897 5898 5899 5900 5900 5900 5900 5900 5900 5900 5901 5901 5900 5900 5900 5900 5900 5899 5899 5899 5898 5898 5898 5898 5897 5897 5897 5897 5897 5897 5897 5898 5898 5899 5900 5901 5903
5888 5889 5891 5892 5894 5895 5896 5897 5898 5899 5899 5899 5900 5900 5900 5900 5900 5900 5899 5899 5899 5899 5899 5899 5898 5898 5898 5898 5897 5897 5897 5898 5898 5898 5897 5898 5898 5899 5899 5900 5901 5902 5903
5886 5888 5889 5891 5893 5894 5895 5896 5897 5898 5898 5899 5899 5899 5899 5899 5898 5898 5898 5898 5898 5898 5898 5898 5897 5897 5897 5897 5897 5897 5897 5898 5898 5898 5897 5898 5899 5899 5900 5901 5902 5903 5904
5884 5886 5887 5889 5891 5893 5894 5895 5896 5897 5897 5898 5898 5898 5898 5897 5897 5897 5897 5897 5897 5896 5896 5896 5896 5896 5896 5896 5896 5896 5896 5897 5897 5898 5898 5898 5899 5900 5900 5901 5902 5903 5905
5881 5884 5885 5887 5889 5891 5892 5893 5895 5896 5896 5896 5896 5896 5896 5896 5896 5896 5896 5896 5895 5895 5895 5895 5895 5895 5895 5895 5895 5895 5895 5895 5896 5896 5896 5897 5898 5899 5900 5901 5902 5903 5905
5879 5882 5883 5885 5887 5889 5891 5892 5893 5894 5895 5895 5895 5895 5895 5895 5895 5895 5894 5894 5894 5894 5893 5893 5893 5893 5893 5894 5894 5894 5894 5894 5895 5894 5894 5896 5898 5899 5900 5901 5902 5903 5905
5876 5879 5881 5883 5885 5887 5889 5890 5891 5892 5893 5893 5893 5893 5893 5893 5893 5893 5892 5892 5892 5892 5892 5892 5892 5892 5892 5892 5892 5892 5892 5892 5893 5893 5893 5895 5896 5898 5899 5900 5902 5903 5904
5873 5876 5878 5881 5883 5885 5887 5888 5889 5890 5891 5891 5891 5891 5891 5891 5891 5891 5891 5891 5890 5890 5890 5890 5890 5890 5890 5891 5891 5891 5891 5891 5892 5891 5892 5894 5896 5897 5898 5899 5901 5902 5903
5870 5871 5875 5878 5880 5882 5884 5886 5887 5888 5889 5889 5889 5889 5890 5889 5889 5889 5889 5889 5889 5889 5889 5889 5889 5889 5889 5889 5890 5889 5890 5890 5890 5890 5891 5893 5895 5896 5897 5898 5899 5901 5902
5867 5869 5872 5874 5877 5880 5882 5884 5885 5886 5887 5887 5888 5888 5888 5888 5888 5888 5887 5887 5887 5887 5887 5887 5888 5888 5888 5888 5888 5888 5888 5889 5890 5890 5890 5892 5893 5895 5896 5897 5898 5899 5900
5862 5865 5867 5871 5874 5877 5879 5881 5882 5884 5885 5886 5886 5886 5886 5887 5886 5886 5886 5885 5886 5886 5886 5886 5886 5886 5886 5886 5887 5887 5887 5888 5889 5888 5889 5891 5892 5892 5894 5895 5896 5897 5898
5856 5859 5863 5867 5871 5874 5876 5878 5880 5881 5883 5884 5884 5885 5885 5885 5885 5885 5884 5884 5884 5884 5884 5884 5885 5885 5885 5885 5885 5886 5886 5886 5886 5887 5888 5889 5890 5890 5891 5893 5894 5895 5896
5852 5856 5859 5863 5867 5870 5873 5875 5877 5879 5881 5882 5883 5883 5883 5884 5883 5883 5883 5883 5883 5883 5883 5883 5884 5884 5884 5884 5884 5885 5885 5885 5885 5886 5887 5887 5888 5888 5889 5891 5892 5893 5894
5849 5851 5856 5860 5864 5867 5870 5873 5875 5877 5879 5880 5881 5881 5882 5882 5882 5882 5882 5882 5882 5882 5882 5883 5883 5883 5883 5883 5883 5884 5884 5884 5884 5885 5885 5886 5886 5886 5887 5888 5889 5891 5892
5845 5847 5853 5857 5860 5864 5867 5870 5873 5875 5877 5878 5879 5880 5881 5881 5881 5881 5881 5881 5881 5882 5882 5882 5882 5882 5882 5882 5883 5883 5883 5883 5884 5884 5884 5885 5885 5885 5886 5886 5888 5889 5889
5842 5845 5850 5854 5857 5861 5865 5868 5871 5873 5875 5876 5878 5879 5880 5880 5880 5880 5881 5881 5881 5881 5882 5882 5882 5882 5882 5882 5882 5883 5883 5883 5883 5883 5883 5884 5884 5884 5884 5885 5886 5887 5887
5840 5844 5848 5851 5855 5859 5863 5866 5868 5871 5873 5875 5876 5877 5878 5879 5879 5880 5880 5881 5881 5881 5881 5881 5882 5882 5882 5882 5882 5882 5882 5882 5882 5882 5883 5883 5883 5883 5883 5884 5884 5885 5885
5839 5842 5845 5849 5853 5857 5861 5864 5867 5869 5871 5873 5875 5876 5877 5878 5879 5879 5880 5881 5881 5881 5881 5882 5882 5882 5882 5882 5882 5882 5882 5883 5882 5882 5882 5882 5882 5882 5882 5882 5882 5883 5883
5836 5839 5843 5847 5851 5855 5858 5862 5865 5867 5870 5872 5873 5875 5877 5877 5878 5879 5880 5880 5881 5881 5882 5882 5882 5882 5882 5882 5882 5882 5882 5882 5881 5881 5881 5881 5880 5880 5880 5880 5881 5881 5881
5835 5838 5842 5845 5849 5853 5856 5860 5863 5865 5868 5870 5872 5874 5876 5877 5878 5879 5879 5880 5881 5881 5881 5882 5882 5882 5882 5882 5882 5881 5881 5881 5881 5880 5880 5879 5879 5879 5879 5879 5879 5878 5878
5835 5838 5841 5844 5848 5851 5855 5858 5861 5864 5866 5869 5871 5873 5874 5876 5877 5878 5879 5880 5880 5881 5881 5881 5881 5881 5881 5881 5881 5881 5880 5880 5879 5879 5879 5878 5878 5877 5877 5876 5876 5876 5876
5836 5838 5841 5844 5848 5851 5854 5857 5860 5863 5865 5867 5870 5872 5873 5875 5876 5877 5878 5879 5879 5880 5880 5880 5880 5880 5880 5880 5880 5879 5879 5878 5878 5877 5877 5876 5876 5875 5874 5874 5873 5873 5873
Wind_Speed
11 10 9 9 8 7 6 5 5 5 4 4 3 2 2 1 0 1 2 2 3 3 3 4 4 4 4 4 4 5 5 6 6 5 5 4 4 4 4 5 7 9 11
11 11 10 10 9 8 7 7 6 6 5 5 4 3 3 2 1 1 1 1 2 2 3 3 3 3 3 3 3 4 4 5 5 5 5 5 4 4 4 7 9 10 10
11 11 10 10 9 8 8 7 7 6 6 6 5 4 4 3 2 2 2 2 3 3 3 3 3 2 2 2 3 3 3 4 4 4 4 4 4 5 6 7 9 9 10
12 11 10 10 9 9 9 8 7 7 6 6 5 5 4 4 4 4 4 4 4 4 4 3 3 3 3 3 2 2 3 3 3 4 4 3 4 5 6 7 8 8 10
12 12 11 11 10 10 10 9 8 7 7 7 6 6 5 5 5 5 5 5 5 5 5 4 4 4 4 3 3 3 2 2 3 3 3 3 4 5 5 7 7 8 9
13 12 12 12 11 11 10 9 9 8 8 7 7 6 6 6 6 7 7 7 6 6 6 5 5 5 5 5 4 4 3 3 3 2 2 2 2 4 5 6 7 8 8
14 13 13 13 12 11 10 10 9 9 8 8 8 7 7 7 8 8 8 8 7 7 7 7 6 6 6 6 6 5 4 4 4 3 2 1 1 2 4 5 6 7 7
14 15 14 14 12 11 11 11 10 9 9 9 9 8 8 8 8 8 9 9 8 8 8 8 7 7 7 7 7 7 6 5 5 4 3 2 1 1 3 4 6 6 7
14 15 16 14 13 12 12 11 11 10 10 10 10 9 9 9 9 9 9 9 9 9 9 9 9 9 9 9 9 9 8 7 6 6 5 4 3 2 3 5 5 6 7
15 16 16 15 14 14 13 12 12 12 11 11 11 10 10 10 10 10 10 10 10 10 10 10 10 10 9 10 10 10 9 8 8 7 6 5 4 4 5 5 6 7 7
17 17 17 16 15 15 14 14 13 13 12 12 11 11 11 11 10 10 10 10 11 10 10 10 10 9 9 9 10 10 10 9 8 8 7 7 6 6 6 6 7 7 7
19 19 18 18 17 16 15 14 14 14 13 12 12 12 11 11 11 11 11 11 11 10 10 9 9 8 8 9 9 9 9 9 9 8 8 8 8 7 7 7 8 8 8
20 20 19 18 17 16 16 14 14 14 14 13 12 12 11 11 11 10 11 10 10 9 9 8 8 8 8 8 8 8 8 8 8 9 9 9 10 9 8 8 9 9 9
22 22 21 20 18 17 16 15 15 15 13 13 12 12 11 11 11 10 10 9 9 8 8 7 7 7 7 7 7 7 8 8 8 9 11 10 10 10 9 9 10 10 11
24 23 22 21 20 18 16 15 15 14 13 12 12 12 11 10 10 9 8 8 7 7 7 7 6 6 7 7 7 7 7 8 8 8 10 9 10 10 10 10 11 11 12
24 24 22 21 20 18 17 15 14 14 13 12 11 11 10 9 9 8 7 7 6 6 6 6 5 6 5 6 6 6 7 7 8 7 8 8 9 10 10 11 11 12 12
22 23 22 23 21 19 18 17 15 13 12 10 10 9 8 8 8 7 6 6 6 5 5 5 4 4 4 4 5 5 6 6 7 7 7 7 9 9 10 11 11 12 13
22 22 21 22 21 20 19 17 15 13 11 10 9 8 7 7 6 6 5 5 4 3 3 3 3 3 3 3 3 4 4 5 5 6 6 6 7 8 9 10 10 10 11
21 22 21 22 21 20 19 16 14 13 11 10 8 8 6 5 5 4 3 2 2 2 2 2 2 2 2 2 3 3 3 4 5 6 6 5 6 7 8 9 9 9 10
19 19 20 20 20 19 18 16 14 12 11 9 8 7 5 4 3 2 1 0 0 1 1 1 1 1 2 2 2 2 3 3 4 5 5 5 6 6 8 8 8 9 9
18 20 19 19 19 18 16 15 13 12 11 9 8 7 5 4 3 2 1 1 1 2 2 2 3 3 3 3 3 3 3 3 4 5 5 6 6 6 7 8 8 9 9
17 20 19 18 18 17 16 14 13 12 10 9 8 7 6 5 3 2 2 2 2 3 3 3 3 3 3 4 4 4 4 4 4 5 6 6 7 7 7 7 8 9 10
15 17 18 19 17 17 16 14 13 11 10 9 8 7 7 6 4 3 2 2 2 2 2 2 3 3 4 4 4 4 4 5 6 6 6 7 7 8 8 8 9 9 10
11 14 16 17 16 15 14 14 13 11 11 10 9 8 7 6 5 4 3 3 2 1 1 1 2 3 4 4 5 5 6 6 7 7 8 8 8 9 9 9 10 10 11
8 11 14 16 15 15 15 14 13 12 12 10 9 9 8 7 6 5 4 3 2 1 1 2 2 3 4 5 6 7 8 8 8 8 8 9 10 10 10 10 11 11 12
5 9 12 14 14 14 14 13 13 13 11 10 10 9 8 8 7 6 5 5 4 4 3 4 4 5 6 7 8 9 9 10 10 10 10 11 11 11 12 12 13 14 13
Wind_Direction
230 225 228 228 226 228 235 243 246 247 240 228 213 204 193 179 130 64 54 45 38 36 32 26 22 21 21 24 25 24 24 22 23 26 29 29 31 56 85 118 131 131 129
231 228 229 231 229 233 235 239 244 247 243 236 231 230 230 236 257 296 325 332 347 2 5 4 3 5 5 8 13 15 16 17 21 26 31 34 45 66 97 124 131 134 132
232 231 231 232 231 234 234 238 244 247 247 245 242 239 240 251 266 281 296 304 313 323 329 333 335 341 344 342 348 356 2 9 16 27 38 48 64 83 106 127 134 138 136
234 234 233 231 229 233 236 240 246 247 250 252 248 246 250 257 266 278 290 297 301 306 311 311 309 314 315 315 314 324 338 352 357 11 20 49 79 97 113 130 138 142 142
233 233 231 228 228 234 238 240 244 246 252 255 254 256 260 267 274 280 286 290 292 294 296 298 297 294 295 293 290 295 311 332 342 351 11 41 75 100 123 134 141 146 148
229 228 228 224 228 237 240 240 245 250 253 257 260 262 267 273 277 278 281 284 286 285 285 287 287 284 282 279 275 278 286 299 306 332 348 18 65 105 133 137 144 149 155
229 227 227 225 228 237 241 241 244 248 254 259 263 267 272 275 277 277 280 283 285 284 284 284 280 275 272 269 266 270 274 271 273 284 296 339 38 133 145 151 153 154 163
231 226 225 225 227 235 241 243 243 249 255 261 264 268 273 276 279 280 280 283 283 281 282 279 276 272 266 264 266 265 264 260 254 259 266 268 270 187 172 172 171 173 179
230 230 224 223 225 231 236 237 241 248 255 260 265 269 273 277 279 279 278 279 280 281 279 276 275 273 266 261 263 262 260 259 255 248 249 251 252 223 200 196 195 190 187
234 231 224 223 224 230 234 237 242 248 254 261 266 271 274 277 278 277 275 277 279 280 278 277 272 269 264 258 259 258 257 258 253 248 246 253 250 235 218 209 212 203 205
230 228 224 222 224 229 236 241 245 251 256 262 266 271 274 276 276 276 276 276 277 276 277 276 269 264 261 257 256 254 252 252 245 246 252 256 250 242 228 220 221 221 217
231 228 223 223 224 229 237 242 247 253 257 262 266 270 274 277 277 277 276 276 276 274 274 274 267 261 261 258 254 251 251 250 249 246 250 250 249 246 235 232 230 229 227
234 227 223 227 228 231 236 243 249 255 259 262 268 272 275 280 283 280 277 276 274 273 270 267 262 260 261 257 253 249 250 251 253 255 254 249 247 249 247 242 237 236 238
232 231 230 229 231 232 238 246 250 254 259 264 269 274 278 283 285 284 282 277 273 271 268 268 263 263 264 259 253 251 251 255 253 254 254 249 247 248 249 249 246 244 243
236 231 231 231 233 233 239 245 248 253 257 264 269 274 277 281 283 285 284 280 274 271 271 270 267 265 268 267 259 255 255 254 256 256 252 248 248 249 249 254 253 250 246
236 228 225 228 232 233 239 241 247 253 256 262 269 273 277 280 281 282 283 281 276 274 276 277 275 275 274 269 265 262 263 263 263 263 258 254 249 251 254 258 258 255 251
235 227 228 230 230 233 238 242 247 251 255 256 265 271 276 278 279 278 278 281 281 278 275 273 272 275 278 272 270 273 274 273 275 273 268 264 261 259 259 260 260 259 256
232 231 234 231 232 234 238 241 245 249 252 252 259 265 271 274 274 271 274 277 276 274 272 274 279 283 284 279 271 279 281 278 280 282 279 273 272 266 264 262 263 263 262
232 231 233 233 232 235 237 238 244 245 246 247 251 256 262 266 269 266 270 270 277 285 284 288 296 293 290 288 292 294 292 287 286 289 290 288 282 278 277 272 268 266 269
228 227 229 228 229 230 232 236 238 237 237 239 242 246 248 250 256 257 247 257 8 5 352 352 0 355 338 325 324 320 316 312 308 307 307 304 297 291 287 284 279 277 279
227 227 227 229 228 226 228 232 230 229 230 232 234 231 231 230 226 209 163 110 85 73 61 51 48 40 28 15 5 355 342 333 324 321 318 314 310 303 295 293 292 285 282
225 225 230 227 226 225 223 224 223 223 223 224 221 220 217 210 198 183 160 129 99 82 68 58 49 39 32 26 19 14 2 352 346 335 328 323 318 312 310 304 299 296 292
225 223 225 220 221 219 219 219 217 214 217 214 212 209 208 199 190 184 174 157 126 93 67 51 41 37 32 25 18 12 3 355 349 343 337 328 322 317 313 309 304 300 297
215 216 215 209 209 206 207 210 208 208 206 204 201 201 201 196 192 191 186 178 164 129 55 26 17 12 8 3 359 354 349 346 342 338 335 329 323 317 312 308 304 302 299
214 207 206 201 199 199 204 204 203 199 198 200 200 200 199 197 198 202 208 210 217 241 287 319 335 338 339 337 335 334 332 333 333 331 329 327 324 319 314 311 308 304 300
193 195 198 194 193 198 200 200 198 196 198 202 202 204 204 206 210 217 226 231 240 253 272 290 301 308 314 316 319 320 321 322 323 322 319 319 316 314 312 310 308 305 302